Find Starlink 30759

NORAD ID: 58122 Int'l Des: 2023-162 Owner: SPXS Country: US Constellation: starlink operational
LEOCIRCULAR

リアルタイム位置

3D地球を読み込み中...

Starlink 30759について

説明を読み込み中...

次回通過

Passes for default location (London). Set your location on the main map for personalized predictions.

高度履歴

Loading altitude history...

軌道要素

1 58122U 23162E 26133.45125581 .00000006 00000-0 97497-5 0 9995
2 58122 43.0049 126.5729 0001580 270.5219 89.5452 15.27577633142222
Epoch: May 13, 2026 • Age: 28 hours

現在のステータス

高度 487.0 km
速度 7.62 km/s
衛星直下点 -19.72°S, 126.1°W
打ち上げ日 Oct 22, 2023
運用期間 2.5 years
タイプ internet

技術仕様

分類 Payload
質量 730.00 kg
乾燥質量 700.00 kg
総質量 730.00 kg
長さ 0.30 m
直径 4.10 m
スパン 29.00 m
形状 Box + pan
製造者 SPXS
バスタイプ Starlink V2M
フェーズステータス In Orbit
所有者/国 SPXS/US

Most Searched